| time (UTC) | temp F | wind direction | speed knots | gust knots | rain 1hr in | rain 24hr in | rain mn in | humidity % | barometer mb |
| 20260503211700 | 62 | 176 | 1.7 | 2.6 | 0.00 | 0.00 | 0.00 | 39 | 1005.2 |
| 20260503211155 | 61 | 168 | 2.6 | 3.5 | 0.00 | 0.00 | 0.00 | 40 | 1005.2 |
| 20260503210652 | 62 | 239 | 4.3 | 6.1 | 0.00 | 0.00 | 0.00 | 39 | 1005.4 |
| 20260503210148 | 61 | 159 | 2.6 | 5.2 | 0.00 | 0.00 | 0.00 | 39 | 1005.2 |
| 20260503205644 | 61 | 130 | 2.6 | 3.5 | 0.00 | 0.00 | 0.00 | 39 | 1005.4 |
| 20260503205140 | 62 | 190 | 3.5 | 3.5 | 0.00 | 0.00 | 0.00 | 40 | 1005.4 |
| 20260503204637 | 61 | 248 | 3.5 | 3.5 | 0.00 | 0.00 | 0.00 | 40 | 1005.4 |
| 20260503204135 | 61 | 149 | 2.6 | 5.2 | 0.00 | 0.00 | 0.00 | 41 | 1005.4 |
| 20260503203631 | 61 | 161 | 3.5 | 5.2 | 0.00 | 0.00 | 0.00 | 40 | 1005.3 |
| 20260503203129 | 61 | 164 | 3.5 | 5.2 | 0.00 | 0.00 | 0.00 | 41 | 1005.2 |
| 20260503202626 | 61 | 202 | 1.7 | 1.7 | 0.00 | 0.00 | 0.00 | 42 | 1005.3 |
| 20260503202124 | 61 | 175 | 3.5 | 5.2 | 0.00 | 0.00 | 0.00 | 40 | 1005.5 |
| 20260503201622 | 62 | 164 | 3.5 | 5.2 | 0.00 | 0.00 | 0.00 | 37 | 1005.5 |
| 20260503201119 | 63 | 133 | 2.6 | 3.5 | 0.00 | 0.00 | 0.00 | 39 | 1005.7 |
| 20260503200615 | 62 | 202 | 2.6 | 3.5 | 0.00 | 0.00 | 0.00 | 36 | 1005.8 |
| 20260503200112 | 63 | 157 | 3.5 | 5.2 | 0.00 | 0.00 | 0.00 | 38 | 1005.8 |
| 20260503195609 | 63 | 189 | 2.6 | 3.5 | 0.00 | 0.00 | 0.00 | 39 | 1005.7 |
| 20260503195106 | 63 | 265 | 2.6 | 5.2 | 0.00 | 0.00 | 0.00 | 40 | 1005.9 |
| 20260503194603 | 62 | 186 | 1.7 | 1.7 | 0.00 | 0.00 | 0.00 | 41 | 1005.8 |
| 20260503194058 | 62 | 234 | 6.1 | 7.8 | 0.00 | 0.00 | 0.00 | 37 | 1006.1 |
| 20260503193555 | 62 | 134 | 6.1 | 9.6 | 0.00 | 0.00 | 0.00 | 38 | 1006.1 |
| 20260503193050 | 63 | 253 | 6.1 | 8.7 | 0.00 | 0.00 | 0.00 | 37 | 1006.2 |
| 20260503192547 | 63 | 115 | 3.5 | 5.2 | 0.00 | 0.00 | 0.00 | 40 | 1006.2 |
| 20260503192043 | 61 | 169 | 1.7 | 1.7 | 0.00 | 0.00 | 0.00 | 40 | 1006.2 |
| 20260503191539 | 62 | 186 | 2.6 | 2.6 | 0.00 | 0.00 | 0.00 | 41 | 1006.5 |
| 20260503191036 | 62 | 231 | 4.3 | 6.1 | 0.00 | 0.00 | 0.00 | 40 | 1006.4 |
| 20260503190533 | 62 | 148 | 3.5 | 5.2 | 0.00 | 0.00 | 0.00 | 39 | 1006.7 |
| 20260503190031 | 63 | 166 | 2.6 | 3.5 | 0.00 | 0.00 | 0.00 | 37 | 1006.6 |
| 20260503185527 | 63 | 155 | 2.6 | 3.5 | 0.00 | 0.00 | 0.00 | 40 | 1006.7 |
| 20260503185026 | 63 | 83 | 2.6 | 2.6 | 0.00 | 0.00 | 0.00 | 40 | 1006.7 |
| 20260503184523 | 61 | 179 | 2.6 | 3.5 | 0.00 | 0.00 | 0.00 | 40 | 1006.9 |
| 20260503184020 | 62 | 149 | 1.7 | 1.7 | 0.00 | 0.00 | 0.00 | 41 | 1006.8 |
| 20260503183516 | 62 | 176 | 4.3 | 6.1 | 0.00 | 0.00 | 0.00 | 38 | 1006.7 |
| 20260503183013 | 62 | 150 | 0.0 | 0.9 | 0.00 | 0.00 | 0.00 | 40 | 1006.8 |
| 20260503182512 | 61 | 188 | 2.6 | 3.5 | 0.00 | 0.00 | 0.00 | 41 | 1006.8 |
| 20260503182009 | 63 | 310 | 7.0 | 8.7 | 0.00 | 0.00 | 0.00 | 38 | 1007.0 |
| 20260503181506 | 62 | 162 | 4.3 | 5.2 | 0.00 | 0.00 | 0.00 | 38 | 1006.8 |
| 20260503181002 | 62 | 38 | 1.7 | 1.7 | 0.00 | 0.00 | 0.00 | 40 | 1007.0 |
| 20260503180500 | 62 | 179 | 1.7 | 2.6 | 0.00 | 0.00 | 0.00 | 40 | 1007.2 |
| 20260503175956 | 62 | 135 | 2.6 | 3.5 | 0.00 | 0.00 | 0.00 | 42 | 1007.2 |
| 20260503175455 | 62 | 149 | 3.5 | 5.2 | 0.00 | 0.00 | 0.00 | 38 | 1007.2 |
| 20260503174950 | 63 | 202 | 2.6 | 3.5 | 0.00 | 0.00 | 0.00 | 40 | 1007.2 |
| 20260503174449 | 61 | 146 | 1.7 | 1.7 | 0.00 | 0.00 | 0.00 | 44 | 1007.4 |
| 20260503173944 | 61 | 190 | 3.5 | 3.5 | 0.00 | 0.00 | 0.00 | 41 | 1007.4 |
| 20260503173440 | 61 | 151 | 1.7 | 2.6 | 0.00 | 0.00 | 0.00 | 45 | 1007.4 |
| 20260503172937 | 60 | 185 | 1.7 | 2.6 | 0.00 | 0.00 | 0.00 | 43 | 1007.6 |
| 20260503172434 | 61 | 175 | 0.9 | 0.9 | 0.00 | 0.00 | 0.00 | 44 | 1007.7 |
| 20260503171930 | 61 | 192 | 1.7 | 1.7 | 0.00 | 0.00 | 0.00 | 43 | 1007.7 |
| 20260503171427 | 60 | 153 | 0.9 | 0.9 | 0.00 | 0.00 | 0.00 | 45 | 1007.9 |
| 20260503170925 | 61 | 164 | 1.7 | 2.6 | 0.00 | 0.00 | 0.00 | 44 | 1007.9 |
| 20260503170421 | 60 | 276 | 3.5 | 7.0 | 0.00 | 0.00 | 0.00 | 43 | 1007.9 |
| 20260503150813 | 55 | 145 | 0.9 | 0.9 | 0.00 | 0.00 | 0.00 | 47 | 1008.8 |
| 20260503150309 | 55 | 170 | 2.6 | 6.1 | 0.00 | 0.00 | 0.00 | 46 | 1009.1 |
| 20260503140234 | 52 | 196 | 1.7 | 1.7 | 0.00 | 0.00 | 0.00 | 47 | 1008.9 |
| 20260503131203 | 48 | 188 | 1.7 | 1.7 | 0.00 | 0.00 | 0.00 | 55 | 1009.6 |
| 20260503130700 | 47 | 163 | 1.7 | 1.7 | 0.00 | 0.00 | 0.00 | 53 | 1009.6 |
| 20260503130158 | 47 | 185 | 2.6 | 3.5 | 0.00 | 0.00 | 0.00 | 54 | 1009.7 |
| 20260503120124 | 42 | 178 | 0.9 | 1.7 | 0.00 | 0.00 | 0.00 | 60 | 1009.6 |
| 20260503110550 | 38 | 163 | 0.0 | 0.0 | 0.00 | 0.00 | 0.00 | 73 | 1009.6 |
| 20260503090438 | 38 | 164 | 0.0 | 0.0 | 0.00 | 0.00 | 0.00 | 75 | 1009.2 |
| 20260503081404 | 38 | 160 | 0.0 | 0.0 | 0.00 | 0.00 | 0.00 | 76 | 1009.4 |
| 20260503080901 | 38 | 167 | 0.0 | 0.0 | 0.00 | 0.00 | 0.00 | 75 | 1009.4 |
| 20260503080358 | 38 | 155 | 0.0 | 0.0 | 0.00 | 0.00 | 0.00 | 76 | 1009.4 |
| 20260503072834 | 39 | 153 | 0.9 | 0.9 | 0.00 | 0.00 | 0.00 | 74 | 1009.4 |
| 20260503072331 | 39 | 153 | 0.0 | 0.0 | 0.00 | 0.00 | 0.00 | 75 | 1009.4 |
| 20260503071827 | 39 | 153 | 0.9 | 0.9 | 0.00 | 0.00 | 0.00 | 76 | 1009.3 |
| 20260503071325 | 39 | 161 | 0.0 | 0.9 | 0.00 | 0.00 | 0.00 | 77 | 1009.3 |
| 20260503070821 | 39 | 156 | 0.0 | 0.0 | 0.00 | 0.00 | 0.00 | 76 | 1009.3 |
| 20260503070319 | 39 | 153 | 0.0 | 0.0 | 0.00 | 0.00 | 0.00 | 76 | 1009.4 |
| 20260503060244 | 39 | 146 | 0.0 | 0.0 | 0.00 | 0.00 | 0.00 | 82 | 1009.8 |
| 20260503054731 | 39 | 156 | 0.0 | 0.0 | 0.00 | 0.00 | 0.00 | 82 | 1009.7 |
| 20260503054228 | 39 | 154 | 0.0 | 0.0 | 0.00 | 0.00 | 0.00 | 82 | 1010.0 |
| 20260503053726 | 39 | 159 | 0.0 | 0.0 | 0.00 | 0.00 | 0.00 | 82 | 1009.7 |
| 20260503053225 | 39 | 162 | 0.0 | 0.0 | 0.00 | 0.00 | 0.00 | 82 | 1009.6 |
| 20260503052720 | 39 | 161 | 0.0 | 0.0 | 0.00 | 0.00 | 0.00 | 82 | 1009.6 |
| 20260503052217 | 39 | 161 | 0.0 | 0.0 | 0.00 | 0.00 | 0.00 | 82 | 1009.9 |
| 20260503051712 | 39 | 157 | 0.0 | 0.0 | 0.00 | 0.00 | 0.00 | 82 | 1009.5 |
| 20260503051210 | 39 | 161 | 0.0 | 0.0 | 0.00 | 0.00 | 0.00 | 82 | 1010.0 |
| 20260503050707 | 39 | 152 | 0.0 | 0.0 | 0.00 | 0.00 | 0.00 | 81 | 1010.0 |
| 20260503050203 | 39 | 169 | 0.9 | 0.9 | 0.00 | 0.00 | 0.00 | 81 | 1009.7 |
| 20260503045701 | 39 | 159 | 0.0 | 0.0 | 0.00 | 0.00 | 0.00 | 81 | 1009.8 |
| 20260503045158 | 39 | 158 | 0.0 | 0.0 | 0.00 | 0.00 | 0.00 | 81 | 1010.0 |
| 20260503044654 | 39 | 159 | 0.0 | 0.0 | 0.00 | 0.00 | 0.00 | 82 | 1009.8 |
| 20260503044152 | 40 | 159 | 0.0 | 0.0 | 0.00 | 0.00 | 0.00 | 81 | 1009.9 |
| 20260503043648 | 40 | 153 | 0.0 | 0.0 | 0.00 | 0.00 | 0.00 | 81 | 1009.9 |
| 20260503043146 | 40 | 156 | 0.0 | 0.0 | 0.00 | 0.00 | 0.00 | 80 | 1009.8 |
| 20260503042642 | 40 | 156 | 0.0 | 0.0 | 0.00 | 0.00 | 0.00 | 79 | 1010.1 |
| 20260503042138 | 41 | 153 | 0.0 | 0.0 | 0.00 | 0.00 | 0.00 | 79 | 1009.9 |
| 20260503041635 | 41 | 155 | 0.0 | 0.0 | 0.00 | 0.00 | 0.00 | 77 | 1009.8 |
| 20260503041132 | 41 | 155 | 0.0 | 0.0 | 0.00 | 0.00 | 0.00 | 76 | 1010.0 |
| 20260503040630 | 41 | 153 | 0.0 | 0.0 | 0.00 | 0.00 | 0.00 | 75 | 1010.0 |
| 20260503040127 | 42 | 160 | 0.0 | 0.0 | 0.00 | 0.00 | 0.00 | 76 | 1010.0 |
| 20260503035623 | 42 | 159 | 0.0 | 0.0 | 0.00 | 0.20 | 0.20 | 75 | 1010.1 |
| 20260503035121 | 42 | 157 | 0.9 | 0.9 | 0.00 | 0.20 | 0.20 | 74 | 1010.1 |
| 20260503034618 | 42 | 157 | 0.0 | 0.0 | 0.00 | 0.20 | 0.20 | 73 | 1010.1 |
| 20260503034116 | 42 | 158 | 0.0 | 0.0 | 0.00 | 0.20 | 0.20 | 73 | 1010.0 |
| 20260503033613 | 43 | 158 | 0.0 | 0.0 | 0.00 | 0.20 | 0.20 | 73 | 1009.9 |
| 20260503033110 | 43 | 166 | 0.0 | 0.9 | 0.00 | 0.20 | 0.20 | 71 | 1010.2 |
| 20260503032609 | 43 | 155 | 0.9 | 0.9 | 0.00 | 0.20 | 0.20 | 71 | 1010.1 |
| 20260503032107 | 43 | 226 | 0.9 | 1.7 | 0.00 | 0.20 | 0.20 | 72 | 1010.1 |
| 20260503031604 | 43 | 180 | 0.0 | 0.0 | 0.00 | 0.20 | 0.20 | 72 | 1010.1 |
| 20260503031101 | 43 | 156 | 0.0 | 0.0 | 0.00 | 0.20 | 0.20 | 72 | 1010.1 |
| 20260503030557 | 43 | 159 | 0.9 | 0.9 | 0.00 | 0.20 | 0.20 | 72 | 1010.4 |
| 20260503030054 | 43 | 170 | 0.0 | 0.0 | 0.00 | 0.20 | 0.20 | 73 | 1010.4 |
| 20260503025551 | 43 | 157 | 0.0 | 0.0 | 0.00 | 0.20 | 0.20 | 72 | 1010.1 |
| 20260503025049 | 43 | 155 | 0.0 | 0.9 | 0.00 | 0.20 | 0.20 | 71 | 1010.3 |
| 20260503024544 | 44 | 159 | 0.0 | 0.0 | 0.00 | 0.20 | 0.20 | 71 | 1010.4 |
| 20260503024042 | 44 | 157 | 0.0 | 0.0 | 0.00 | 0.20 | 0.20 | 70 | 1010.4 |
| 20260503023538 | 44 | 152 | 0.0 | 0.0 | 0.00 | 0.20 | 0.20 | 70 | 1010.2 |
| 20260503023036 | 44 | 155 | 0.0 | 0.0 | 0.00 | 0.20 | 0.20 | 69 | 1010.4 |
| 20260503022526 | 44 | 155 | 0.0 | 0.9 | 0.00 | 0.20 | 0.20 | 67 | 1010.5 |
| 20260503022021 | 44 | 157 | 0.0 | 0.0 | 0.00 | 0.20 | 0.20 | 66 | 1010.5 |
| 20260503021518 | 44 | 165 | 0.0 | 0.9 | 0.00 | 0.20 | 0.20 | 64 | 1010.5 |
| 20260503021015 | 44 | 155 | 0.0 | 0.9 | 0.00 | 0.20 | 0.20 | 66 | 1010.4 |
| 20260503020512 | 44 | 156 | 0.9 | 0.9 | 0.00 | 0.20 | 0.20 | 64 | 1010.3 |
| 20260503020009 | 44 | 151 | 0.0 | 0.9 | 0.00 | 0.20 | 0.20 | 63 | 1010.4 |
| 20260503015505 | 44 | 155 | 0.0 | 0.0 | 0.00 | 0.20 | 0.20 | 66 | 1010.2 |
| 20260503015002 | 44 | 159 | 0.0 | 0.0 | 0.00 | 0.20 | 0.20 | 65 | 1010.4 |
| 20260503014458 | 44 | 163 | 0.0 | 0.0 | 0.00 | 0.20 | 0.20 | 63 | 1010.3 |
| 20260503013957 | 44 | 183 | 0.9 | 0.9 | 0.00 | 0.20 | 0.20 | 62 | 1010.4 |
| 20260503013453 | 45 | 151 | 0.0 | 0.0 | 0.00 | 0.20 | 0.20 | 63 | 1010.3 |
| 20260503012950 | 45 | 152 | 0.0 | 0.0 | 0.00 | 0.20 | 0.20 | 64 | 1010.3 |
| 20260503012449 | 45 | 151 | 0.0 | 0.0 | 0.00 | 0.20 | 0.20 | 61 | 1010.3 |
| 20260503011944 | 45 | 157 | 0.0 | 0.0 | 0.00 | 0.20 | 0.20 | 61 | 1010.4 |
| 20260503011441 | 45 | 160 | 0.0 | 0.0 | 0.00 | 0.20 | 0.20 | 60 | 1010.4 |
| 20260503010939 | 45 | 157 | 0.9 | 0.9 | 0.00 | 0.20 | 0.20 | 58 | 1010.1 |
| 20260503010436 | 45 | 12 | 1.7 | 2.6 | 0.00 | 0.20 | 0.20 | 57 | 1010.2 |
| 20260503005933 | 45 | 141 | 0.0 | 0.0 | 0.00 | 0.20 | 0.20 | 56 | 1010.1 |
| 20260503005430 | 45 | 159 | 0.0 | 0.0 | 0.00 | 0.20 | 0.20 | 57 | 1010.0 |
| 20260503004927 | 45 | 149 | 0.0 | 0.0 | 0.00 | 0.20 | 0.20 | 55 | 1010.2 |
| 20260503004423 | 45 | 156 | 0.0 | 0.9 | 0.00 | 0.20 | 0.20 | 55 | 1010.1 |
| 20260503003921 | 45 | 149 | 0.0 | 0.0 | 0.00 | 0.20 | 0.20 | 55 | 1010.1 |
| 20260503003417 | 45 | 107 | 0.0 | 0.0 | 0.00 | 0.20 | 0.20 | 54 | 1009.8 |
| 20260503002915 | 45 | 138 | 0.0 | 0.0 | 0.00 | 0.20 | 0.20 | 53 | 1010.0 |
| 20260503002407 | 45 | 130 | 0.0 | 0.0 | 0.00 | 0.20 | 0.20 | 55 | 1010.0 |
| 20260503001903 | 45 | 145 | 0.0 | 0.0 | 0.00 | 0.20 | 0.20 | 56 | 1010.1 |
| 20260503001359 | 45 | 132 | 0.0 | 0.0 | 0.00 | 0.20 | 0.20 | 58 | 1010.1 |
| 20260503000857 | 45 | 160 | 0.0 | 0.0 | 0.00 | 0.20 | 0.20 | 58 | 1010.2 |
| 20260503000354 | 45 | 135 | 0.0 | 0.0 | 0.00 | 0.20 | 0.20 | 56 | 1010.1 |
| 20260502235850 | 45 | 137 | 0.9 | 0.9 | 0.00 | 0.20 | 0.20 | 58 | 1010.0 |
| 20260502235347 | 45 | 150 | 0.0 | 0.9 | 0.00 | 0.20 | 0.20 | 59 | 1010.1 |
| 20260502234845 | 46 | 159 | 0.0 | 0.0 | 0.00 | 0.20 | 0.20 | 56 | 1010.0 |
| 20260502234341 | 46 | 151 | 0.0 | 0.0 | 0.00 | 0.20 | 0.20 | 58 | 1010.0 |
| 20260502233838 | 46 | 120 | 0.9 | 0.9 | 0.00 | 0.20 | 0.20 | 57 | 1010.0 |
| 20260502233334 | 46 | 152 | 0.0 | 0.0 | 0.00 | 0.20 | 0.20 | 57 | 1009.9 |
| 20260502232831 | 46 | 143 | 0.0 | 0.9 | 0.00 | 0.20 | 0.20 | 56 | 1010.0 |
| 20260502232327 | 46 | 167 | 0.9 | 0.9 | 0.00 | 0.20 | 0.20 | 55 | 1010.1 |
| 20260502231824 | 46 | 166 | 0.0 | 0.0 | 0.00 | 0.20 | 0.20 | 57 | 1010.2 |
| 20260502231322 | 46 | 143 | 0.0 | 0.0 | 0.00 | 0.20 | 0.20 | 56 | 1010.1 |
| 20260502230820 | 46 | 141 | 0.9 | 0.9 | 0.00 | 0.20 | 0.20 | 57 | 1010.2 |
| 20260502230317 | 46 | 151 | 0.0 | 0.0 | 0.00 | 0.20 | 0.20 | 55 | 1010.1 |
| 20260502225814 | 46 | 167 | 0.0 | 0.9 | 0.00 | 0.20 | 0.20 | 54 | 1010.1 |
| 20260502225311 | 47 | 207 | 0.9 | 1.7 | 0.00 | 0.20 | 0.20 | 54 | 1010.1 |
| 20260502224807 | 47 | 216 | 1.7 | 1.7 | 0.00 | 0.20 | 0.20 | 52 | 1010.2 |
| 20260502224304 | 47 | 353 | 0.0 | 0.9 | 0.00 | 0.20 | 0.20 | 52 | 1010.1 |
| 20260502223801 | 47 | 331 | 1.7 | 1.7 | 0.00 | 0.20 | 0.20 | 54 | 1010.2 |
| 20260502223300 | 47 | 150 | 0.0 | 0.0 | 0.00 | 0.20 | 0.20 | 54 | 1010.2 |
| 20260502222757 | 47 | 179 | 0.9 | 0.9 | 0.00 | 0.20 | 0.20 | 54 | 1010.3 |
| 20260502222254 | 48 | 97 | 0.0 | 0.9 | 0.00 | 0.20 | 0.20 | 53 | 1010.0 |
| 20260502221749 | 48 | 70 | 0.9 | 1.7 | 0.00 | 0.20 | 0.20 | 53 | 1010.4 |
| 20260502221246 | 48 | 151 | 0.9 | 0.9 | 0.00 | 0.20 | 0.20 | 55 | 1010.2 |
| 20260502220743 | 47 | 64 | 0.9 | 2.6 | 0.00 | 0.20 | 0.20 | 58 | 1010.2 |
| 20260502220238 | 47 | 88 | 0.9 | 1.7 | 0.00 | 0.20 | 0.20 | 56 | 1010.3 |
| 20260502215736 | 47 | 53 | 0.9 | 1.7 | 0.00 | 0.20 | 0.20 | 58 | 1010.4 |
| 20260502215233 | 47 | 116 | 0.9 | 1.7 | 0.00 | 0.20 | 0.20 | 57 | 1010.4 |
| 20260502214730 | 47 | 118 | 0.0 | 0.9 | 0.00 | 0.20 | 0.20 | 58 | 1010.3 |
| 20260502214227 | 48 | 132 | 1.7 | 1.7 | 0.00 | 0.20 | 0.20 | 57 | 1010.1 |
| 20260502213724 | 48 | 139 | 0.9 | 0.9 | 0.00 | 0.20 | 0.20 | 58 | 1010.3 |
| 20260502213222 | 47 | 4 | 0.0 | 0.9 | 0.00 | 0.20 | 0.20 | 58 | 1010.2 |
| 20260502212720 | 48 | 225 | 1.7 | 2.6 | 0.00 | 0.20 | 0.20 | 59 | 1010.3 |
| 20260502212218 | 47 | 9 | 0.9 | 1.7 | 0.00 | 0.20 | 0.20 | 58 | 1010.0 |